www.pogodaiklimat.ru

Погода и климат >> Архив погоды >> Аргентина >> Buenos Aires Aeropuerto


АРХИВ ПОГОДЫ в Buenos Aires Aeropuerto

Время (UTC), дата Ветер
(напр.,м/с)
 
Видим.   Явления Облачность Т
(С)
Тd
(С)
f
(%)
Тe
(С)
Тes
(С)
Комфортность P
(гПа)
Po
(гПа)
Тmin
(С)
Tmax
(С)
R
(мм)
R24
(мм)
S
(см)
18 9.08 В 7 10 км {морось} 6/4 600 м
[Sc Ci]
+15.9 +11.5 75 +14 +16 по сезону 1019.8 1019.2 0.0
21 9.08 В 7 10 км 5/1 300 м
[Sc Ci]
+14.7 +12.5 87 +13 +13 по сезону 1018.8 1018.1
00 10.08 В 9 10 км ясно +15.0 +12.8 87 +13 +13 тепло 1018.7 1018.0 +13.5 +16.0
03 10.08 В 8 10 км ясно +14.5 +11.2 81 +12 +12 тепло 1020.4 1019.7
06 10.08 В 8 10 км ясно +13.7 +10.5 81 +11 +11 по сезону 1021.0 1020.4
09 10.08 В 9 10 км 8/8 400 м
[St]
+12.8 +10.5 86 +10 +10 по сезону 1019.5 1018.8
12 10.08 В 7 10 км 8/4 480 м
[St Ci fib]
+13.5 +10.5 82 +11 +11 по сезону 1019.9 1019.2 +11.9 +15.2 0.0
15 10.08 В 8 10 км 10/9 700 м
[St Ac As]
+14.8 +10.9 77 +13 +13 тепло 1018.7 1018.0
18 10.08 В 6 10 км 10/4 870 м
[Sc Ac As]
+16.4 +12.1 76 +15 +16 тепло 1015.9 1015.2
21 10.08 В 5 10 км 9/5 960 м
[Sc Ac As]
+16.4 +13.0 80 +15 +15 тепло 1014.7 1014.0
00 11.08 В 6 8000 м гроза, ливневой дождь 10/5 750 м
[Cb cap As op]
+15.8 +13.7 87 +14 +14 тепло 1016.4 1015.7 +13.4 +17.0 0.0
03 11.08 В 9 10 км {гроза, дождь} 10/3 450 м
[St Ac As]
+15.6 +13.8 89 +14 +14 тепло 1012.9 1012.2
06 11.08 В 11 3000 м сильная гроза, ливневой дождь 10/5 900 м
[Cb cap As op]
+15.8 +14.1 90 +14 +14 тепло 1012.4 1011.7 5
09 11.08 В 9 3000 м дождь {гроза} 10/4 300 м
[Frnb As op]
+15.1 +14.2 94 +13 +13 тепло 1011.6 1010.9
12 11.08 В 9 10 км {гроза, дождь} 10/10 400 м
[Sc]
+15.3 +13.9 91 +13 +13 тепло 1009.6 1008.9 +15.0 +16.5 15
15 11.08 В 6 10 км в посл. час дождь {морось} туман 10/9 400 м
[St As op]
+15.8 +14.8 94 +14 +15 тепло 1007.6 1006.9
18 11.08 ЮВ 3 10 км в посл. час дождь {морось} 10/6 500 м
[Sc Ac As]
+16.6 +14.7 89 +16 +17 тепло 1005.1 1004.4 0.7
21 11.08 СВ 2 10 км в посл. час морось 10/10 450 м
[St]
+17.0 +15.3 90 +18 +18 тепло 1005.1 1004.4
00 12.08 С 3 10 км {морось} 10/10 180 м
[St]
+16.6 +15.6 94 +16 +16 тепло 1007.4 1006.6 +15.3 +17.4 0.0
03 12.08 СВ 2 6000 м морось 10/10 210 м
[St]
+16.5 +16.0 97 +17 +17 тепло 1008.6 1007.8
06 12.08 В 1 3000 м морось 10/10 270 м
[St]
+16.4 +15.7 96 +17 +17 тепло 1007.2 1006.5 0.5
09 12.08 Ю 2 2200 м морось 10/10 180 м
[St]
+15.1 +14.9 99 +15 +15 тепло 1007.3 1006.6
12 12.08 Ю 3 9000 м дымка {морось} 10/10 210 м
[St]
+15.0 +13.8 93 +14 +14 тепло 1008.5 1007.8 +15.0 +17.0 5
15 12.08 ЮЗ 4 8000 м слабая морось 10/10 240 м
[St]
+14.6 +13.5 93 +13 +13 по сезону 1009.2 1008.5
18 12.08 Ю 4 10 км {морось} 10/10 450 м
[St]
+14.2 +10.8 80 +13 +13 по сезону 1008.2 1007.4 0.7
21 12.08 ЮЗ 5 10 км 9/5 800 м
[Sc Ac As]
+14.9 +9.3 69 +14 +14 по сезону 1009.9 1009.2
00 13.08 Ю 2 10 км 6/0
[Ac As Cs]
+13.8 +9.3 74 +13 +13 по сезону 1013.0 1012.2 +13.5 +15.6
03 13.08 ЮЗ 2 10 км ясно +12.5 +10.0 85 +12 +12 по сезону 1015.4 1014.6
06 13.08 ЮЗ 2 10 км 3/0
[Ac trans Ci]
+11.1 +8.5 84 +10 +10 по сезону 1016.4 1015.7
09 13.08 ЮЗ 2 10 км ясно +10.0 +6.6 79 +9 +9 по сезону 1016.3 1015.6
12 13.08 ЮЗ 2 10 км 4/0
[Cs]
+10.2 +5.4 72 +9 +10 по сезону 1016.9 1016.2 +9.6 +13.8 0.7
15 13.08 Ю 2 10 км 4/0
[Cs]
+14.8 +2.9 45 +15 +23 тепло 1014.6 1013.8
18 13.08 СВ 5 10 км 5/0
[Ci sp]
+14.7 +7.3 61 +13 +17 по сезону 1012.8 1012.1
21 13.08 СВ 3 10 км 4/0
[Ci sp]
+14.0 +7.1 63 +13 +13 по сезону 1012.6 1012.0
00 14.08 С 3 10 км ясно +14.3 +6.3 59 +14 +14 тепло 1012.1 1011.4 +10.2 +16.5
03 14.08 СЗ 3 10 км 9/0
[Ac As Cs]
+12.6 +5.9 64 +11 +11 по сезону 1013.0 1012.2
06 14.08 СЗ 5 10 км 8/0
[Ac As]
+12.5 +3.9 56 +11 +11 по сезону 1012.7 1012.0
09 14.08 СЗ 5 10 км ясно +11.1 +3.7 60 +9 +9 по сезону 1012.7 1012.0
12 14.08 З 5 10 км 3/0
[Ci fib]
+12.0 +5.9 66 +10 +11 по сезону 1014.7 1014.0 +11.0 +14.5
15 14.08 З 4 10 км ясно +16.9 +0.9 34 +17 +24 тепло 1015.9 1015.2
18 14.08 З 3 10 км 3/0
[Ac cast Ci sp]
+18.7 +0.2 29 +19 +24 тепло 1014.7 1014.0
21 14.08 З 3 10 км 4/0
[Ac und Ci]
+18.2 -0.7 28 +18 +18 тепло 1015.6 1014.9
00 15.08 С 3 10 км 10/5 1200 м
[Sc Ac As]
+15.5 +3.9 46 +15 +15 тепло 1017.1 1016.4 +12.0 +20.0
03 15.08 З 1 10 км 4/0
[Ac As]
+13.4 +5.1 57 +14 +14 тепло 1017.7 1017.0
06 15.08 СЗ 1 10 км 8/0
[Ac As]
+13.0 +4.9 58 +13 +13 тепло 1018.0 1017.3
09 15.08 С 3 10 км 3/0
[Ac trans]
+12.0 +7.3 73 +11 +11 по сезону 1017.7 1017.0
12 15.08 С 5 10 км 1/0
[Ac cast]
+13.8 +7.6 66 +12 +13 по сезону 1018.8 1018.1 +11.9 +15.6
15 15.08 С 3 10 км 1/0
[Ac cast]
+16.2 +11.0 71 +16 +23 тепло 1018.1 1017.4
18 15.08 С 5 10 км 3/0
[Ac cast Ci fib]
+19.7 +8.0 47 +20 +23 тепло 1015.1 1014.4
21 15.08 СЗ 5 10 км 4/0
[Ac trans]
+18.8 +8.5 51 +19 +19 тепло 1015.3 1014.6
00 16.08 Ю 4 10 км 9/0
[Ac As Cs]
+15.0 +8.3 64 +14 +14 тепло 1019.2 1018.5 +13.5 +20.5
03 16.08 З 2 10 км 8/0
[Ac und Cs]
+14.6 +5.7 55 +15 +15 тепло 1021.2 1020.5
06 16.08 З 2 10 км ясно +11.2 +6.6 73 +10 +10 по сезону 1021.8 1021.2
09 16.08 ЮЗ 2 10 км ясно +11.6 +5.4 66 +11 +11 по сезону 1022.4 1021.7
12 16.08 Ю 2 10 км ясно +11.8 +5.4 65 +11 +13 по сезону 1024.6 1024.0 +10.5 +15.6
15 16.08 СВ 3 10 км ясно +14.3 +5.0 54 +14 +21 тепло 1024.3 1023.6

 

Местоположение метеостанции Buenos Aires Aeropuerto (Аргентина): широта -34.56 долгота -58.41 высота над уровнем моря 6 м.

В архиве по умолчанию представлена погода в Buenos Aires Aeropuerto за последнюю неделю. Архивные данные за месяц целиком и за предыдущие месяцы, начиная с января 2011 года, Вы можете получить, выбрав интересующий диапазон дат из раскрывающегося списка и нажав кнопку "Ввод!".

Внимание! Время в таблицах - всемирное. Для получения местного времени необходимо прибавить поправку, которая в Buenos Aires Aeropuerto равна -3 ч.

Смотрите также архив погоды в соседних городах и на ближайших метеорологических станциях:

Погода в Buenos Aires (Аргентина) (7 км)
Погода в Ezeiza (Аргентина) (30 км)
Погода в Colonia (Уругвай) (55 км)
Погода в La Plata (Аргентина) (64 км)
Погода в Mercedes (Уругвай) (149 км)
Погода в Gualeguaychu (Аргентина) (174 км)
Погода в Las Flores (Аргентина) (179 км)
Погода в Melilla (Уругвай) (199 км)
Погода в Prado (Уругвай) (205 км)
Погода в Dolores (Аргентина) (206 км)

Пояснения к столбцам:

Ветер - указаны скорость ветра в м/с - средняя за 10 мин, порывы в срок и между сроками (в фигурных скобках) и направление, откуда дует ветер: С - северный, СВ - северо-восточный, В - восточный, ЮВ - юго-восточный, Ю - южный, ЮЗ - юго-западный, З - западный, СЗ - северо-западный.
Видимость - горизонтальная дальность видимости в метрах или километрах. При видимости от 1 до 10 км при отсутствии осадков обычно наблюдается дымка, при ухудшении видимости до 1 км и менее - туман. В сухую погоду видимость может ухудшаться дымом, пылью или мглою.
Явления - указаны атмосферные явления, наблюдавшиеся в срок или в последний час перед сроком; фигурными скобками обозначены явления, наблюдавшиеся между сроками (за 1-3 часа до срока); квадратными скобками обозначены град или гололедные отложения с указанием их диаметра в мм.
Облачность - указаны через наклонную черту общая и нижняя облачность в баллах и высота нижней границы облаков в метрах; квадратными скобками обозначены формы облаков: Ci - перистые, Cs - перисто-слоистые, Cc - перисто-кучевые, Ac - высококучевые, As - высокослоистые, Sc - слоисто-кучевые, Ns - слоисто-дождевые, Cu - кучевые, Cb - кучево-дождевые. Подробнее классификацию облаков см. в Атласе облаков (PDF).
T - Температура воздуха - температура, измеренная на высоте 2 м над землей.
Td - Температура точки росы - температура, при понижении до которой содержащийся в воздухе водяной пар достигнет насыщения.
f - Относительная влажность воздуха - влажноcть воздуха, измеренная на высоте 2 м над землей.
Te - Эффективная температура - температура, которую ощущает одетый по сезону человек в тени. Характеристика душности погоды. При расчете учитывается влияние влажности воздуха и скорости ветра на теплоощущения человека.
Tes - Эффективная температура на солнце - температура, которую ощущает человек, с поправкой на солнечный нагрев. Характеристика знойности погоды. Зависит от высоты солнца над горизонтом, облачности и скорости ветра. Ночью, в пасмурную погоду, а также при ветре 12 м/с и более поправка равна нулю.
P - Атмосферное давление - приведенное к уровню моря атмосферное давление.
Po - Атмосферное давление - измеренное на уровне метеостанции атмосферное давление.
Tmin - Минимальная температура - минимум температуры воздуха на высоте 2 м над землей.
Tmax - Максимальная температура - максимум температуры воздуха на высоте 2 м над землей.
R - Количество осадков - Количество выпавших осадков за период времени, мм. При наведении курсора мыши на число - период времени, за который выпало указанное количество осадков.
R24 - Количество осадков - Количество выпавших осадков за 24 часа, мм.
S - Снежный покров - Высота снежного покрова, см. При наведении курсора мыши на число - состояние снежного покрова и степень покрытия местности в баллах.